Date,TemperatureHighF,TemperatureAvgF,TemperatureLowF,DewpointHighF,DewpointAvgF,DewpointLowF,HumidityHigh,HumidityAvg,HumidityLow,PressureMaxIn,PressureMinIn,WindSpeedMaxMPH,WindSpeedAvgMPH,GustSpeedMaxMPH,PrecipitationSumIn
2013-4-24,67.0,65.0,63.0,18.0,16.2,15.0,16,15,14,0.00,40.00,8,6,26,0.00
2013-4-25,61.0,56.0,47.0,25.0,19.1,13.0,41,24,15,0.00,40.00,13,7,24,0.00
2013-4-26,67.0,52.9,33.0,31.0,20.7,13.0,64,32,13,0.00,40.00,13,5,24,0.00
2013-4-27,69.0,51.4,31.0,25.0,11.2,-2.0,49,25,6,0.00,40.00,10,4,18,0.00
2013-4-28,75.0,55.8,34.0,27.0,14.2,8.0,46,23,9,0.00,40.00,9,4,20,0.00
2013-4-29,77.0,59.7,38.0,29.0,17.7,13.0,44,24,10,0.00,40.00,11,5,26,0.00
2013-4-30,73.0,64.1,54.0,22.0,14.6,8.0,25,15,9,0.00,40.00,14,7,32,0.00
2013-5-1,69.0,57.6,41.0,27.0,9.5,-13.0,37,16,5,0.00,40.00,12,6,21,0.00
2013-5-2,65.0,48.4,34.0,10.0,4.0,-5.0,29,17,9,0.00,40.00,12,7,22,0.00
2013-5-3,71.0,57.6,38.0,13.0,4.2,-2.0,22,12,6,0.00,40.00,11,6,21,0.00
2013-5-4,70.0,55.1,30.0,17.0,9.1,3.0,35,17,11,0.00,40.00,10,5,23,0.00
2013-5-5,63.0,55.0,49.0,25.0,17.7,11.0,28,23,17,0.00,40.00,12,7,24,0.00
2013-5-6,58.0,50.1,42.0,41.0,30.3,18.0,60,47,27,0.00,40.00,9,6,28,0.01
2013-5-7,53.0,45.4,32.0,42.0,34.9,31.0,95,68,48,0.00,40.00,12,6,22,0.16
2013-5-8,57.0,43.7,29.0,40.0,30.9,26.0,99,66,31,0.00,40.00,8,3,17,0.11
2013-5-9,57.0,45.2,31.0,41.0,32.7,28.0,94,65,38,0.00,40.00,9,4,18,0.03
2013-5-10,66.0,49.4,29.0,45.0,28.1,-99.9,98,54,25,0.00,40.00,8,4,22,0.01
2013-5-11,69.0,53.1,33.0,40.0,28.8,-99.9,90,46,20,0.00,40.00,9,4,22,0.00
2013-5-12,76.0,56.6,36.0,38.0,24.6,20.0,69,36,14,0.00,40.00,8,4,19,0.00
2013-5-13,79.0,61.2,40.0,38.0,25.1,21.0,55,29,13,0.00,40.00,8,4,17,0.00
2013-5-14,79.0,64.4,48.0,33.0,26.7,24.0,46,26,15,0.00,40.00,14,5,34,0.00
2013-5-15,74.0,63.2,50.0,27.0,15.3,5.0,38,18,8,0.00,40.00,10,6,29,0.00
2013-5-16,74.0,58.4,56.0,30.0,5.0,-99.9,24,18,10,0.00,40.00,12,6,27,0.00
2013-5-17,68.0,58.6,51.0,31.0,20.7,-99.9,37,27,16,0.00,40.00,11,6,30,0.00
2013-5-18,67.0,54.1,34.0,35.0,27.6,23.0,74,39,21,0.00,40.00,11,5,23,0.00
2013-5-19,71.0,56.7,40.0,32.0,24.4,17.0,64,33,15,0.00,40.00,16,8,34,0.00
2013-5-20,65.0,50.7,32.0,34.0,23.5,18.0,71,38,20,0.00,40.00,10,6,24,0.00
2013-5-21,74.0,57.2,33.0,37.0,22.3,15.0,72,32,13,0.00,40.00,11,5,24,0.00
2013-5-22,75.0,64.6,56.0,26.0,21.2,12.0,29,19,12,0.00,40.00,11,7,40,0.00
2013-5-23,73.0,63.0,54.0,27.0,21.6,14.0,34,21,13,0.00,40.00,13,8,31,0.00
2013-5-24,73.0,59.4,34.0,28.0,15.4,8.0,42,20,9,0.00,40.00,10,6,23,0.00
2013-5-25,74.0,64.4,56.0,22.0,14.2,0.0,26,15,9,0.00,40.00,10,7,29,0.00
2013-5-26,74.0,62.3,51.0,24.0,16.3,8.0,23,17,12,0.00,40.00,9,6,25,0.00
2013-5-27,73.0,59.8,42.0,28.0,19.7,14.0,43,22,14,0.00,40.00,9,5,20,0.00
2013-5-28,71.0,59.9,42.0,32.0,27.5,19.0,43,30,20,0.00,40.00,10,6,27,0.00
2013-5-29,73.0,57.4,37.0,40.0,28.1,25.0,68,37,19,0.00,40.00,15,7,31,0.00
2013-5-30,77.0,65.0,50.0,40.0,34.4,27.0,54,33,22,0.00,40.00,11,6,24,0.00
2013-5-31,81.0,66.6,51.0,44.0,35.7,17.0,63,35,14,0.00,40.00,8,5,19,0.00
2013-6-1,83.0,66.5,46.0,25.0,19.5,12.0,29,18,10,0.00,40.00,8,5,18,0.00
2013-6-2,83.0,67.8,46.0,40.0,25.7,21.0,45,23,11,0.00,40.00,9,5,24,0.00
2013-6-3,81.0,67.8,45.0,46.0,27.1,22.0,60,25,12,0.00,40.00,8,4,25,0.00
2013-6-4,80.0,68.5,46.0,36.0,21.5,17.0,43,18,11,0.00,40.00,11,5,24,0.00
2013-6-5,83.0,66.6,44.0,41.0,24.6,17.0,50,23,12,0.00,40.00,10,4,20,0.00
2013-6-6,86.0,67.8,48.0,40.0,24.1,18.0,41,22,9,0.00,40.00,10,5,20,0.00
2013-6-7,87.0,68.8,48.0,40.0,21.4,11.0,38,20,6,0.00,40.00,10,4,21,0.00
2013-6-8,91.0,72.8,49.0,40.0,23.3,18.0,35,18,9,0.00,40.00,13,6,24,0.00
2013-6-9,90.0,74.9,54.0,35.0,26.6,18.0,44,19,10,0.00,40.00,10,5,22,0.00
2013-6-10,84.0,72.5,49.0,38.0,15.2,4.0,42,14,6,0.00,40.00,11,6,28,0.00
2013-6-11,85.0,72.1,62.0,35.0,25.5,12.0,29,19,9,0.00,40.00,10,6,23,0.00
2013-6-12,88.0,70.4,46.0,39.0,26.2,23.0,44,22,12,0.00,40.00,11,4,26,0.00
2013-6-13,84.0,74.3,60.0,40.0,32.6,25.0,31,22,15,0.00,40.00,13,6,30,0.00
2013-6-14,83.0,67.8,47.0,31.0,27.4,23.0,39,24,14,0.00,40.00,12,5,24,0.00
2013-6-15,81.0,71.7,57.0,40.0,32.5,25.0,40,24,17,0.00,40.00,10,6,26,0.00
2013-6-16,82.0,67.6,46.0,33.0,27.3,21.0,53,25,13,0.00,40.00,10,5,26,0.00
2013-6-17,83.0,65.0,43.0,30.0,17.7,3.0,45,20,5,0.00,40.00,10,4,24,0.00
2013-6-18,83.0,66.8,44.0,23.0,15.5,8.0,34,16,9,0.00,40.00,9,5,22,0.00
2013-6-19,80.0,70.4,62.0,26.0,18.4,8.0,22,14,10,0.00,40.00,11,7,27,0.00
2013-6-20,81.0,68.4,54.0,23.0,19.4,16.0,25,16,11,0.00,40.00,11,6,29,0.00
2013-6-21,81.0,79.2,76.0,23.0,21.2,18.0,12,11,11,0.00,40.00,9,8,26,0.00
2013-6-22,81.0,72.7,59.0,30.0,23.5,17.0,20,16,12,0.00,40.00,12,7,25,0.00
2013-6-23,80.0,65.1,41.0,28.0,21.4,13.0,47,22,9,0.00,40.00,10,5,26,0.00
2013-6-24,76.0,67.1,59.0,36.0,27.2,22.0,35,23,14,0.00,40.00,12,7,27,0.00
2013-6-25,81.0,70.0,60.0,34.0,25.6,14.0,32,19,14,0.00,40.00,9,6,23,0.00
2013-6-26,86.0,73.3,52.0,30.0,24.0,18.0,30,17,11,0.00,40.00,9,5,19,0.00
2013-6-27,92.0,73.1,50.0,42.0,32.3,21.0,61,27,9,0.00,40.00,11,4,19,0.00
2013-6-28,92.0,74.0,56.0,43.0,34.8,28.0,49,26,11,0.00,40.00,12,5,24,0.00
2013-6-29,93.0,74.7,57.0,43.0,35.7,30.0,42,27,13,0.00,40.00,10,4,20,0.00
2013-6-30,93.0,74.1,56.0,44.0,37.6,33.0,46,29,15,0.00,40.00,10,5,26,0.00
2013-7-1,90.0,75.9,59.0,47.0,40.6,36.0,45,30,18,0.00,40.00,10,5,21,0.00
2013-7-2,88.0,69.9,58.0,63.0,48.1,37.0,93,49,26,0.00,40.00,11,5,35,0.19
2013-7-3,86.0,73.0,59.0,58.0,47.9,41.0,86,44,26,0.00,40.00,11,6,29,0.03
2013-7-4,88.0,75.1,60.0,49.0,46.1,43.0,62,38,24,0.00,40.00,9,5,24,0.00
2013-7-5,83.0,75.3,63.0,52.0,48.6,44.0,56,40,29,0.00,40.00,11,5,22,0.00
2013-7-6,84.0,65.7,53.0,58.0,50.6,47.0,96,62,30,0.00,40.00,10,4,20,0.15
2013-7-7,86.0,69.3,50.0,62.0,48.2,38.0,99,56,24,0.00,40.00,11,4,22,0.15
2013-7-8,88.0,68.1,53.0,52.0,39.2,-99.9,65,40,18,0.00,40.00,9,4,19,0.00
2013-7-9,90.0,74.4,56.0,44.0,35.2,28.0,45,27,13,0.00,40.00,10,5,20,0.00
2013-7-10,85.0,65.8,58.0,57.0,43.5,-99.9,95,53,20,0.00,40.00,12,4,21,0.10
2013-7-11,74.0,65.3,57.0,66.0,57.5,54.0,93,77,50,0.00,40.00,7,4,17,0.19
2013-7-12,75.0,61.7,50.0,62.0,53.9,50.0,100,78,52,0.00,40.00,7,3,17,0.06
2013-7-13,78.0,65.9,51.0,62.0,53.4,51.0,100,68,41,0.00,40.00,9,3,20,0.01
2013-7-14,81.0,65.3,54.0,59.0,52.2,47.0,91,66,31,0.00,40.00,6,3,17,0.11
2013-7-15,79.0,64.0,52.0,59.0,52.8,47.0,92,70,39,0.00,40.00,7,3,19,0.18
2013-7-16,77.0,64.4,57.0,58.0,55.4,52.0,99,76,44,0.00,40.00,7,3,20,0.35
2013-7-17,76.0,64.9,53.0,59.0,55.5,52.0,99,75,45,0.00,40.00,7,4,15,0.04
2013-7-18,77.0,63.4,55.0,61.0,56.9,50.0,99,82,45,0.00,40.00,8,3,21,1.04
2013-7-19,79.0,63.2,53.0,62.0,55.7,51.0,100,80,39,0.00,40.00,6,3,14,0.20
2013-7-20,79.0,64.9,53.0,64.0,48.1,-99.9,99,72,44,0.00,40.00,7,4,16,0.17
2013-7-21,73.0,63.3,56.0,62.0,57.6,54.0,99,83,60,0.00,40.00,9,4,19,0.48
2013-7-22,74.0,61.8,57.0,62.0,58.8,54.0,100,91,53,0.00,40.00,7,3,12,0.59
2013-7-23,75.0,61.7,53.0,63.0,57.4,53.0,100,88,54,0.00,40.00,8,4,15,0.36
2013-7-24,80.0,65.5,53.0,70.0,56.6,52.0,100,77,41,0.00,40.00,7,3,22,0.16
2013-7-25,82.0,66.0,57.0,61.0,58.3,52.0,98,79,46,0.00,40.00,7,3,15,0.34
2013-7-26,78.0,65.7,56.0,63.0,57.5,54.0,99,77,53,0.00,40.00,13,4,26,0.01
2013-7-27,74.0,63.5,55.0,59.0,48.8,-99.9,98,74,51,0.00,40.00,10,4,17,0.30
2013-7-28,74.0,61.8,53.0,63.0,56.3,53.0,100,84,49,0.00,40.00,11,4,24,0.50
2013-7-29,78.0,65.5,50.0,58.0,50.8,44.0,100,65,34,0.00,40.00,8,4,24,0.03
2013-7-30,81.0,66.2,51.0,56.0,48.6,44.0,83,57,34,0.00,40.00,8,4,19,0.00
2013-7-31,83.0,69.0,53.0,59.0,50.0,47.0,84,55,31,0.00,40.00,10,4,18,0.00
2013-8-1,80.0,71.5,60.0,58.0,52.7,46.0,70,52,42,0.00,40.00,9,6,21,0.00
2013-8-2,80.0,70.6,58.0,58.0,51.0,43.0,85,52,28,0.00,40.00,8,5,22,0.00
2013-8-3,81.0,69.7,53.0,55.0,48.0,43.0,90,49,29,0.00,40.00,9,4,21,0.00
2013-8-4,80.0,68.4,58.0,61.0,47.9,43.0,79,50,31,0.00,40.00,8,4,17,0.00
2013-8-5,81.0,67.5,48.0,55.0,41.6,36.0,66,42,24,0.00,40.00,7,4,18,0.00
2013-8-6,70.0,61.4,56.0,55.0,49.3,42.0,95,67,43,0.00,40.00,6,3,16,0.13
2013-8-7,77.0,64.1,50.0,56.0,48.4,37.0,99,63,32,0.00,40.00,9,4,17,0.08
2013-8-8,80.0,64.0,45.0,48.0,35.8,29.0,75,40,20,0.00,40.00,8,4,17,0.00
2013-8-9,81.0,64.5,43.0,44.0,33.1,29.0,64,35,18,0.00,40.00,8,4,25,0.00
2013-8-10,79.0,65.9,47.0,36.0,31.9,27.0,62,32,17,0.00,40.00,8,5,19,0.00
2013-8-11,80.0,68.4,53.0,48.0,42.6,33.0,64,41,26,0.00,40.00,10,7,20,0.00
2013-8-12,81.0,68.7,51.0,52.0,41.3,35.0,76,40,24,0.00,40.00,11,5,21,0.00
2013-8-13,84.0,66.3,47.0,47.0,34.1,-99.9,68,35,19,0.00,40.00,6,4,20,0.00
2013-8-14,83.0,65.9,47.0,46.0,37.7,-99.9,73,42,22,0.00,40.00,10,4,24,0.00
2013-8-15,76.0,63.8,56.0,51.0,42.4,-99.9,67,50,34,0.00,40.00,7,3,16,0.00
2013-8-16,87.0,66.5,51.0,57.0,43.8,-99.9,82,52,25,0.00,40.00,12,4,24,0.00
2013-8-17,85.0,64.2,54.0,59.0,48.4,-99.9,93,62,24,0.00,40.00,13,4,22,0.12
2013-8-18,83.0,66.8,53.0,55.0,49.0,42.0,86,56,27,0.00,40.00,9,4,19,0.08
2013-8-19,79.0,57.7,51.0,58.0,46.2,-99.9,99,75,37,0.00,40.00,5,3,14,0.50
2013-8-20,82.0,64.0,47.0,60.0,50.0,46.0,99,67,32,0.00,40.00,6,3,23,0.02
2013-8-21,72.0,64.8,58.0,59.0,51.6,47.0,87,63,47,0.00,40.00,7,3,19,0.03
2013-8-22,76.0,62.1,53.0,60.0,53.1,49.0,96,75,41,0.00,40.00,9,3,19,0.30
2013-8-23,77.0,63.3,53.0,57.0,50.8,47.0,98,68,36,0.00,40.00,8,4,18,0.08
2013-8-24,72.0,58.9,51.0,58.0,49.9,-99.9,93,75,45,0.00,40.00,10,4,18,0.08
2013-8-25,61.0,57.3,54.0,58.0,54.5,51.0,99,91,84,0.00,40.00,7,3,15,0.33
2013-8-26,73.0,62.0,57.0,63.0,57.3,54.0,99,86,61,0.00,40.00,10,5,17,0.62
2013-8-27,74.0,60.1,55.0,60.0,56.4,54.0,99,89,54,0.00,40.00,9,4,17,0.92
2013-8-28,79.0,65.6,53.0,64.0,56.0,50.0,98,76,38,0.00,40.00,8,4,15,0.32
2013-8-29,74.0,60.7,51.0,63.0,57.4,51.0,100,89,62,0.00,40.00,6,2,11,0.12
2013-8-30,72.0,61.3,55.0,63.0,58.9,54.0,99,92,72,0.00,40.00,7,2,14,0.25
2013-8-31,68.0,59.9,55.0,63.0,56.8,-99.9,100,92,70,0.00,40.00,5,2,11,0.37
2013-9-1,76.0,62.4,53.0,64.0,56.5,52.0,100,83,54,0.00,40.00,8,3,18,0.03
2013-9-2,79.0,64.4,49.0,64.0,52.2,46.0,99,70,35,0.00,40.00,8,3,17,0.00
2013-9-3,81.0,68.6,52.0,56.0,51.2,48.0,87,57,35,0.00,40.00,8,4,17,0.00
2013-9-4,80.0,66.2,56.0,60.0,53.5,47.0,87,66,36,0.00,40.00,8,3,20,0.00
2013-9-5,81.0,65.5,50.0,61.0,49.2,44.0,95,62,27,0.00,40.00,7,3,17,0.00
2013-9-6,81.0,65.3,53.0,58.0,49.2,39.0,85,61,25,0.00,40.00,8,3,19,0.00
2013-9-7,75.0,62.6,56.0,61.0,52.1,-99.9,96,72,50,0.00,40.00,8,3,18,0.00
2013-9-8,64.0,58.1,53.0,58.0,54.6,52.0,98,89,70,0.00,40.00,8,3,16,0.05
2013-9-9,61.0,55.8,50.0,56.0,53.0,49.0,99,91,68,0.00,40.00,8,3,17,0.08
2013-9-10,64.0,56.2,48.0,57.0,52.4,48.0,99,88,65,0.00,40.00,6,2,15,0.22
2013-9-11,65.0,55.1,45.0,57.0,51.7,45.0,99,90,61,0.00,40.00,6,3,15,0.27
2013-9-12,72.0,56.3,42.0,56.0,46.2,42.0,99,74,41,0.00,40.00,6,3,11,0.03
2013-9-13,74.0,59.1,44.0,59.0,45.5,41.0,99,68,31,0.00,40.00,8,3,16,0.00
2013-9-14,75.0,58.7,46.0,54.0,46.1,-99.9,97,69,36,0.00,40.00,8,3,16,0.00
2013-9-15,78.0,59.6,45.0,50.0,46.0,44.0,98,67,33,0.00,40.00,6,2,14,0.00
2013-9-16,79.0,61.9,45.0,50.0,45.9,38.0,96,62,25,0.00,40.00,8,3,17,0.00
2013-9-17,77.0,66.2,48.0,55.0,49.2,44.0,95,58,38,0.00,40.00,8,4,19,0.00
2013-9-18,67.0,59.4,45.0,44.0,37.8,32.0,61,45,37,0.00,40.00,5,3,14,0.00
2013-9-19,77.0,57.6,39.0,41.0,35.9,32.0,85,51,21,0.00,40.00,7,3,17,0.00
2013-9-20,77.0,60.1,40.0,44.0,38.1,31.0,86,50,23,0.00,40.00,10,4,23,0.00
2013-9-21,73.0,63.4,51.0,51.0,43.5,-99.9,76,50,38,0.00,40.00,9,6,22,0.01
2013-9-22,63.0,55.9,36.0,47.0,31.6,18.0,67,43,18,0.00,40.00,15,8,30,0.01
2013-9-23,72.0,50.0,31.0,39.0,20.9,-99.9,87,45,16,0.00,40.00,6,3,12,0.00
2013-9-24,74.0,59.3,34.0,40.0,28.6,23.0,78,36,18,0.00,40.00,7,4,19,0.00
2013-9-25,69.0,60.7,55.0,36.0,30.5,24.0,46,32,22,0.00,40.00,12,8,30,0.00
2013-9-26,66.0,56.0,46.0,37.0,30.7,15.0,55,39,25,0.00,40.00,12,10,36,0.00
2013-9-27,58.0,45.3,31.0,27.0,20.1,13.0,74,40,17,0.00,40.00,8,5,17,0.00
2013-9-28,68.0,45.2,24.0,26.0,19.5,-99.9,78,44,18,0.00,40.00,8,3,17,0.00
2013-9-29,72.0,50.8,30.0,31.0,25.1,21.0,75,42,18,0.00,40.00,7,4,18,0.00
2013-9-30,73.0,53.9,33.0,32.0,23.0,18.0,67,36,14,0.00,40.00,8,4,17,0.00
2013-10-1,69.0,57.0,45.0,26.0,24.4,21.0,46,29,17,0.00,40.00,7,4,20,0.00
2013-10-2,70.0,56.5,38.0,37.0,27.5,20.0,74,36,17,0.00,40.00,9,5,26,0.00
2013-10-3,66.0,56.4,42.0,40.0,31.1,19.0,62,40,22,0.00,40.00,10,6,26,0.00
2013-10-4,58.0,43.2,28.0,21.0,14.0,7.0,63,35,14,0.00,40.00,8,5,18,0.00
2013-10-5,59.0,43.8,29.0,19.0,14.7,7.0,51,32,19,0.00,40.00,9,6,20,0.00
2013-10-6,73.0,48.1,21.0,19.0,12.1,4.0,56,29,11,0.00,40.00,7,4,16,0.00
2013-10-7,75.0,56.1,32.0,24.0,17.2,14.0,49,25,10,0.00,40.00,6,4,19,0.00
2013-10-8,67.0,58.5,52.0,26.0,20.5,14.0,36,23,15,0.00,40.00,9,7,24,0.00
2013-10-9,58.0,51.6,46.0,35.0,27.6,22.0,63,41,26,0.00,40.00,16,10,36,0.00
2013-10-10,46.0,36.0,28.0,37.0,32.0,27.0,97,86,60,0.00,40.00,9,4,36,0.59
2013-10-11,57.0,38.9,25.0,38.0,29.3,24.0,97,74,30,0.00,40.00,6,2,13,0.01
2013-10-12,62.0,47.0,28.0,34.0,26.3,-99.9,93,51,23,0.00,40.00,7,4,16,0.01
2013-10-13,60.0,50.8,43.0,32.0,27.6,23.0,52,41,29,0.00,40.00,10,6,28,0.00
2013-10-14,58.0,40.7,25.0,29.0,22.4,17.0,83,54,21,0.00,40.00,8,3,14,0.00
2013-10-15,58.0,39.6,25.0,32.0,21.2,13.0,87,55,17,0.00,40.00,10,4,21,0.00
2013-10-16,59.0,39.9,24.0,26.0,20.6,16.0,89,53,20,0.00,40.00,7,4,14,0.00
2013-10-17,63.0,40.9,21.0,28.0,12.1,5.0,77,39,11,0.00,40.00,7,3,15,0.00
2013-10-18,63.0,43.2,27.0,24.0,15.2,6.0,70,39,12,0.00,40.00,7,4,19,0.00
2013-10-19,65.0,42.5,25.0,27.0,11.3,-99.9,70,36,11,0.00,40.00,8,4,15,0.00
2013-10-20,68.0,44.8,26.0,26.0,13.3,9.0,66,35,10,0.00,40.00,8,4,17,0.00
2013-10-21,66.0,47.0,28.0,20.0,15.5,11.0,61,33,13,0.00,40.00,7,4,16,0.00
2013-10-22,68.0,49.1,30.0,25.0,16.6,11.0,58,31,13,0.00,40.00,8,4,14,0.00
2013-10-23,70.0,50.6,28.0,27.0,17.9,13.0,67,33,12,0.00,40.00,8,3,14,0.00
2013-10-24,68.0,54.8,35.0,31.0,21.3,17.0,47,28,17,0.00,40.00,9,5,21,0.00
2013-10-25,66.0,45.5,28.0,35.0,22.0,15.0,72,44,18,0.00,40.00,8,3,16,0.00
2013-10-26,67.0,47.4,29.0,35.0,25.2,-99.9,86,49,21,0.00,40.00,6,3,14,0.00
2013-10-27,66.0,52.4,31.0,36.0,25.9,22.0,81,40,19,0.00,40.00,10,5,22,0.00
2013-10-28,54.0,48.3,45.0,30.0,23.8,-99.9,51,40,34,0.00,40.00,11,9,31,0.00
2013-10-29,45.0,38.6,27.0,35.0,27.6,22.0,91,65,43,0.00,40.00,10,6,31,0.03
2013-10-30,48.0,33.1,22.0,31.0,25.2,19.0,96,76,37,0.00,40.00,8,3,19,0.01
2013-10-31,54.0,34.6,20.0,27.0,20.0,17.0,93,63,23,0.00,40.00,9,3,16,0.00
2013-11-1,63.0,39.5,27.0,28.0,13.4,-99.9,74,45,18,0.00,40.00,7,4,14,0.00
2013-11-2,66.0,50.5,27.0,28.0,12.3,-99.9,62,26,13,0.00,40.00,9,5,19,0.00
2013-11-3,58.0,48.4,30.0,28.0,19.5,8.0,57,32,18,0.00,40.00,11,6,26,0.00
2013-11-4,52.0,38.8,22.0,27.0,20.2,14.0,75,49,35,0.00,40.00,8,4,20,0.00
2013-11-5,50.0,33.4,19.0,29.0,16.9,5.0,96,59,18,0.00,40.00,9,3,14,0.00
2013-11-6,61.0,39.3,15.0,8.0,0.8,-14.0,63,26,5,0.00,40.00,8,4,16,0.00
2013-11-7,63.0,47.8,27.0,12.0,5.9,-1.0,37,19,10,0.00,40.00,12,6,21,0.00
2013-11-8,63.0,43.7,27.0,19.0,13.0,4.0,54,31,15,0.00,40.00,7,4,17,0.00
2013-11-9,63.0,40.3,25.0,29.0,17.0,-99.9,76,46,17,0.00,40.00,7,2,15,0.00
2013-11-10,65.0,43.6,28.0,29.0,23.1,17.0,72,49,22,0.00,40.00,7,2,13,0.00
2013-11-11,68.0,45.4,25.0,26.0,17.9,10.0,80,41,13,0.00,40.00,9,3,18,0.00
2013-11-12,68.0,53.9,31.0,18.0,14.2,10.0,48,23,12,0.00,40.00,10,6,17,0.00
2013-11-13,65.0,49.3,34.0,30.0,21.6,14.0,61,36,19,0.00,40.00,10,4,19,0.00
2013-11-14,62.0,44.9,28.0,31.0,20.3,14.0,72,43,16,0.00,40.00,8,4,18,0.00
2013-11-15,55.0,47.8,40.0,37.0,31.4,24.0,83,54,40,0.00,40.00,10,7,26,0.00
2013-11-16,49.0,41.2,37.0,38.0,32.6,-99.9,89,75,50,0.00,40.00,9,6,25,0.00
2013-11-17,54.0,38.6,25.0,36.0,28.9,23.0,93,71,42,0.00,40.00,7,3,15,0.00
2013-11-18,60.0,40.4,22.0,35.0,27.6,15.0,93,64,34,0.00,40.00,7,3,14,0.00
2013-11-19,56.0,44.0,30.0,36.0,31.8,23.0,93,65,37,0.00,40.00,10,4,20,0.00
2013-11-20,46.0,39.1,31.0,38.0,34.8,29.0,95,85,62,0.00,40.00,6,3,15,0.14
2013-11-21,44.0,40.9,37.0,39.0,36.5,31.0,90,84,73,0.00,40.00,10,5,24,0.19
2013-11-22,39.0,35.7,33.0,37.0,34.0,31.0,96,93,87,0.00,40.00,8,5,25,0.99
2013-11-23,38.0,33.9,32.0,36.0,30.1,-99.9,94,90,83,0.00,40.00,10,5,25,0.39
2013-11-24,35.0,31.6,27.0,33.0,29.7,26.0,97,93,85,0.00,40.00,4,1,8,0.26
2013-11-25,47.0,34.9,27.0,34.0,26.4,17.0,97,75,37,0.00,40.00,7,3,16,0.01
2013-11-26,55.0,34.6,22.0,34.0,23.7,20.0,92,70,28,0.00,40.00,7,3,15,0.00
2013-11-27,47.0,37.4,33.0,29.0,25.0,19.0,80,62,33,0.00,40.00,10,7,23,0.00
2013-11-28,53.0,34.1,22.0,28.0,21.4,18.0,87,64,29,0.00,40.00,9,4,18,0.00
2013-11-29,52.0,34.1,23.0,30.0,24.4,20.0,94,72,37,0.00,40.00,6,3,15,0.00
2013-11-30,54.0,31.3,23.0,40.0,18.4,-99.9,95,74,42,0.00,40.00,7,2,15,0.00
2013-12-1,54.0,34.2,25.0,41.0,23.5,19.0,93,71,25,0.00,40.00,5,2,14,0.00
2013-12-2,60.0,40.9,25.0,28.0,19.7,11.0,76,49,17,0.00,40.00,8,5,18,0.00
2013-12-3,47.0,43.9,41.0,16.0,12.8,8.0,35,28,20,0.00,40.00,9,7,27,0.00